^^
Saratoga-Weather Station Historical Data
Daily Summary for June 19, 2020 Units:  English    Metric   Both
Daily Weekly Monthly Yearly Custom
  High: Low: Average:
Temperature: 72.3 °F 55.6 °F 64.6 °F
Dew Point: 57.4 °F 50.7 °F 54.3 °F
Humidity: 88% 51% 70%
Wind Speed: 11mph 0mph 3.4mph
Wind Gust: 15mph - -
Wind- - West
Pressure: 30.1 in 29.9 in -
Precipitation: 0 in    
Historical Graphs
 
 
Tabular Data for June 19, 2020
Time Temperature Dew Point Pressure Wind Wind Speed Wind Gust Humidity Rainfall Rate (Hourly) solar
00:00 60.1 °F 54.3 °F 29.9 in ENE 0.9 mph 4 mph 81% 0 in 0 W/m2
00:05 60.1 °F 54.3 °F 29.9 in West 2.9 mph 4 mph 81% 0 in 0 W/m2
00:10 60.1 °F 54 °F 29.9 in WSW 2 mph 3 mph 80% 0 in 0 W/m2
00:15 60.1 °F 54.3 °F 29.9 in West 0.9 mph 6 mph 81% 0 in 0 W/m2
00:20 60.1 °F 54.3 °F 29.9 in West 0.9 mph 4 mph 81% 0 in 0 W/m2
00:25 59.9 °F 54.1 °F 29.9 in WSW 2 mph 3 mph 81% 0 in 0 W/m2
00:30 59.9 °F 54.1 °F 29.9 in SW 4 mph 4 mph 81% 0 in 0 W/m2
00:35 60.1 °F 54 °F 29.9 in Calm   2 mph 80% 0 in 0 W/m2
00:40 60.1 °F 54 °F 29.9 in West 2 mph 5 mph 80% 0 in 0 W/m2
00:45 60.3 °F 53.8 °F 29.9 in West 2 mph 6 mph 79% 0 in 0 W/m2
00:50 60.4 °F 53.6 °F 30 in WSW 2.9 mph 4 mph 78% 0 in 0 W/m2
00:55 60.4 °F 53.6 °F 30 in WSW 4.9 mph 8 mph 78% 0 in 0 W/m2
01:00 60.4 °F 53.2 °F 30 in NW 4 mph 4 mph 77% 0 in 0 W/m2
01:05 60.4 °F 53.2 °F 30 in WSW 2.9 mph 6 mph 77% 0 in 0 W/m2
01:10 60.6 °F 53.4 °F 30 in WNW 2 mph 4 mph 77% 0 in 0 W/m2
01:15 60.6 °F 53.4 °F 30 in WNW 6.9 mph 7 mph 77% 0 in 0 W/m2
01:20 60.6 °F 53.4 °F 30 in West 2 mph 3 mph 77% 0 in 0 W/m2
01:25 60.4 °F 53.2 °F 30 in WNW 4 mph 6 mph 77% 0 in 0 W/m2
01:30 60.4 °F 53.2 °F 30 in West 4 mph 6 mph 77% 0 in 0 W/m2
01:35 60.4 °F 53.2 °F 30 in West 2 mph 7 mph 77% 0 in 0 W/m2
01:40 60.4 °F 53.2 °F 30 in WSW 2 mph 7 mph 77% 0 in 0 W/m2
01:45 60.6 °F 53.4 °F 30 in West 2 mph 3 mph 77% 0 in 0 W/m2
01:50 60.6 °F 53.4 °F 30 in NW 2 mph 4 mph 77% 0 in 0 W/m2
01:55 60.6 °F 53.1 °F 30 in West 2 mph 7 mph 76% 0 in 0 W/m2
02:00 60.6 °F 53.1 °F 30 in WNW 2 mph 8 mph 76% 0 in 0 W/m2
02:05 60.6 °F 53.4 °F 30 in NW 4 mph 7 mph 77% 0 in 0 W/m2
02:10 60.4 °F 53.2 °F 30 in West 6 mph 7 mph 77% 0 in 0 W/m2
02:15 60.4 °F 53.2 °F 30 in NW 2 mph 7 mph 77% 0 in 0 W/m2
02:20 60.3 °F 53.4 °F 30 in WNW 2 mph 6 mph 78% 0 in 0 W/m2
02:25 60.1 °F 53.2 °F 30 in West 6 mph 6 mph 78% 0 in 0 W/m2
02:30 59.7 °F 53.2 °F 30 in WNW 2 mph 6 mph 79% 0 in 0 W/m2
02:35 59.5 °F 53.4 °F 30 in WNW 8.9 mph 9 mph 80% 0 in 0 W/m2
02:40 59.5 °F 53.4 °F 30 in SSW 2.9 mph 6 mph 80% 0 in 0 W/m2
02:45 59.5 °F 53.4 °F 30 in West 0.9 mph 6 mph 80% 0 in 0 W/m2
02:51 59.4 °F 53.2 °F 30 in West 2.9 mph 8 mph 80% 0 in 0 W/m2
02:56 59.2 °F 53.4 °F 30 in WSW 4.9 mph 5 mph 81% 0 in 0 W/m2
03:01 59.2 °F 53.4 °F 30 in West 2.9 mph 4 mph 81% 0 in 0 W/m2
03:11 58.8 °F 53.1 °F 30 in WSW 4 mph 6 mph 81% 0 in 0 W/m2
03:16 58.8 °F 53.1 °F 30 in West 2.9 mph 8 mph 81% 0 in 0 W/m2
03:21 58.8 °F 52.7 °F 30 in West 2 mph 4 mph 80% 0 in 0 W/m2
03:26 58.6 °F 52.9 °F 30 in West 2 mph 7 mph 81% 0 in 0 W/m2
03:32 58.6 °F 52.9 °F 30 in West 2 mph 10 mph 81% 0 in 0 W/m2
03:37 58.5 °F 52.7 °F 30 in West 4 mph 6 mph 81% 0 in 0 W/m2
03:42 58.3 °F 52.9 °F 30 in WNW 2.9 mph 10 mph 82% 0 in 0 W/m2
03:47 58.1 °F 52.7 °F 30 in WNW 4 mph 4 mph 82% 0 in 0 W/m2
03:52 57.9 °F 52.5 °F 30 in WNW 4 mph 9 mph 82% 0 in 0 W/m2
03:57 57.7 °F 52.3 °F 30 in WNW 0.9 mph 3 mph 82% 0 in 0 W/m2
04:02 57.6 °F 52.5 °F 30 in West 0.9 mph 7 mph 83% 0 in 0 W/m2
04:07 57.6 °F 52.5 °F 30 in West 4 mph 5 mph 83% 0 in 0 W/m2
04:12 57.4 °F 52.3 °F 30 in West 2 mph 9 mph 83% 0 in 0 W/m2
04:17 57 °F 52 °F 30 in WSW 2 mph 2 mph 83% 0 in 0 W/m2
04:22 57 °F 52.2 °F 30 in West 2 mph 7 mph 84% 0 in 0 W/m2
04:27 56.8 °F 52 °F 30 in West 2 mph 3 mph 84% 0 in 0 W/m2
04:32 56.8 °F 52 °F 30 in West 2 mph 3 mph 84% 0 in 0 W/m2
04:37 56.7 °F 51.8 °F 30 in WNW 2 mph 3 mph 84% 0 in 0 W/m2
04:42 56.7 °F 51.8 °F 30 in WNW 2 mph 3 mph 84% 0 in 0 W/m2
04:47 56.5 °F 52 °F 30 in West 2 mph 4 mph 85% 0 in 0 W/m2
04:52 56.5 °F 52 °F 30 in West 2.9 mph 3 mph 85% 0 in 0 W/m2
04:57 56.5 °F 52 °F 30 in WNW 2.9 mph 4 mph 85% 0 in 0 W/m2
05:02 56.5 °F 52 °F 30 in WSW 4 mph 6 mph 85% 0 in 0 W/m2
05:07 56.5 °F 52 °F 30 in SW 4.9 mph 7 mph 85% 0 in 0 W/m2
05:12 56.5 °F 52 °F 30 in West 4 mph 7 mph 85% 0 in 0 W/m2
05:17 56.5 °F 52 °F 30 in West 6 mph 8 mph 85% 0 in 0 W/m2
05:22 56.5 °F 52 °F 30 in WNW 2 mph 7 mph 85% 0 in 0 W/m2
05:27 56.3 °F 51.8 °F 30 in WNW 2 mph 6 mph 85% 0 in 0 W/m2
05:32 56.1 °F 51.6 °F 30 in West 2 mph 6 mph 85% 0 in 5 W/m2
05:37 56.1 °F 51.6 °F 30 in West 2 mph 7 mph 85% 0 in 5 W/m2
05:42 56.1 °F 51.6 °F 30 in WSW 8.1 mph 9 mph 85% 0 in 9 W/m2
05:47 56.1 °F 51.6 °F 30 in WSW 2.9 mph 4 mph 85% 0 in 12 W/m2
05:52 55.9 °F 51.8 °F 30 in West 2.9 mph 9 mph 86% 0 in 16 W/m2
05:57 55.9 °F 51.8 °F 30 in West 2 mph 4 mph 86% 0 in 19 W/m2
06:02 55.8 °F 51.6 °F 30 in West 6 mph 6 mph 86% 0 in 23 W/m2
06:07 55.8 °F 51.6 °F 30 in West 2 mph 6 mph 86% 0 in 25 W/m2
06:13 55.9 °F 51.8 °F 30 in Calm   3 mph 86% 0 in 25 W/m2
06:18 56.1 °F 52 °F 30 in Calm   5 mph 86% 0 in 26 W/m2
06:23 56.1 °F 52 °F 30 in Calm     86% 0 in 28 W/m2
06:28 56.1 °F 52 °F 30 in West 0.9 mph 3 mph 86% 0 in 33 W/m2
06:33 56.1 °F 52 °F 30 in ESE 2.9 mph 4 mph 86% 0 in 42 W/m2
06:38 55.9 °F 51.8 °F 30 in ENE 2 mph 3 mph 86% 0 in 46 W/m2
06:43 55.8 °F 52 °F 30 in Calm     87% 0 in 44 W/m2
06:48 55.8 °F 52 °F 30 in Calm   1 mph 87% 0 in 46 W/m2
06:53 55.6 °F 52.2 °F 30 in Calm     88% 0 in 46 W/m2
06:58 55.8 °F 52.3 °F 30 in ENE 0.9 mph 1 mph 88% 0 in 49 W/m2
07:03 55.8 °F 52.3 °F 30 in ENE 0.9 mph 2 mph 88% 0 in 51 W/m2
07:08 55.8 °F 52.3 °F 30 in East 2.9 mph 3 mph 88% 0 in 54 W/m2
07:13 55.9 °F 52.5 °F 30 in East 0.9 mph 2 mph 88% 0 in 62 W/m2
07:18 56.1 °F 52.7 °F 30 in Calm   1 mph 88% 0 in 69 W/m2
07:23 56.3 °F 52.5 °F 30 in Calm   2 mph 87% 0 in 77 W/m2
07:28 56.7 °F 52.9 °F 30 in Calm   3 mph 87% 0 in 79 W/m2
07:33 56.8 °F 53.1 °F 30 in West 0.9 mph 3 mph 87% 0 in 86 W/m2
07:38 57.4 °F 53.6 °F 30 in Calm   8 mph 87% 0 in 114 W/m2
07:43 57.7 °F 53.6 °F 30 in NW 2 mph 4 mph 86% 0 in 207 W/m2
07:48 58.3 °F 54.1 °F 30 in Calm   8 mph 86% 0 in 195 W/m2
07:53 58.5 °F 54 °F 30 in West 6.9 mph 8 mph 85% 0 in 221 W/m2
07:58 58.8 °F 54.3 °F 30 in WSW 2.9 mph 8 mph 85% 0 in 251 W/m2
08:03 59.4 °F 54.9 °F 30 in WSW 4 mph 7 mph 85% 0 in 332 W/m2
08:08 59.7 °F 54.9 °F 30 in NW 2 mph 8 mph 84% 0 in 339 W/m2
08:13 60.3 °F 55 °F 30 in Calm   3 mph 83% 0 in 329 W/m2
08:18 61 °F 55.4 °F 30 in West 2 mph 7 mph 82% 0 in 339 W/m2
08:23 61.3 °F 55.4 °F 30 in NW 2.9 mph 6 mph 81% 0 in 359 W/m2
08:28 61.5 °F 55.2 °F 30 in WSW 4 mph 6 mph 80% 0 in 371 W/m2
08:33 61.9 °F 55.2 °F 30 in West 6 mph 10 mph 79% 0 in 364 W/m2
08:38 62.1 °F 55.4 °F 30 in West 4 mph 9 mph 79% 0 in 378 W/m2
08:44 62.2 °F 55.6 °F 30 in WNW 4 mph 10 mph 79% 0 in 406 W/m2
08:49 62.2 °F 55.2 °F 30 in NNW 6 mph 8 mph 78% 0 in 366 W/m2
08:57 62.1 °F 55.4 °F 30 in West 2 mph 5 mph 79% 0 in 329 W/m2
09:02 62.4 °F 55.8 °F 30 in East 4 mph 4 mph 79% 0 in 316 W/m2
09:07 62.6 °F 55.9 °F 30 in SSW 2.9 mph 6 mph 79% 0 in 304 W/m2
09:12 62.4 °F 55.8 °F 30 in NNW 4 mph 4 mph 79% 0 in 403 W/m2
09:17 62.8 °F 56.1 °F 30 in WNW 2.9 mph 4 mph 79% 0 in 374 W/m2
09:22 63 °F 56.3 °F 30 in WNW 4.9 mph 5 mph 79% 0 in 410 W/m2
09:27 63.1 °F 56.1 °F 30 in Calm   4 mph 78% 0 in 381 W/m2
09:32 63.3 °F 56.3 °F 30 in West 4 mph 4 mph 78% 0 in 394 W/m2
09:37 63.5 °F 56.5 °F 30 in West 2 mph 3 mph 78% 0 in 417 W/m2
09:42 63.7 °F 56.3 °F 30 in West 2.9 mph 5 mph 77% 0 in 471 W/m2
09:47 63.9 °F 56.8 °F 30 in Calm   3 mph 78% 0 in 480 W/m2
09:52 64.2 °F 56.5 °F 30 in NNW 2.9 mph 3 mph 76% 0 in 429 W/m2
09:57 64.2 °F 56.1 °F 30 in NW 4 mph 7 mph 75% 0 in 232 W/m2
10:02 64.2 °F 55.8 °F 30 in WNW 6.9 mph 8 mph 74% 0 in 480 W/m2
10:07 64.2 °F 56.1 °F 30 in West 2 mph 6 mph 75% 0 in 443 W/m2
10:12 64.6 °F 56.5 °F 30 in NW 2 mph 7 mph 75% 0 in 267 W/m2
10:17 64.8 °F 56.3 °F 30 in West 4 mph 7 mph 74% 0 in 448 W/m2
10:22 64.8 °F 56.7 °F 30 in NW 4 mph 4 mph 75% 0 in 564 W/m2
10:27 65.1 °F 56.7 °F 30 in NW 2.9 mph 8 mph 74% 0 in 573 W/m2
10:32 65.3 °F 56.8 °F 30 in ENE 0.9 mph 2 mph 74% 0 in 589 W/m2
10:37 66 °F 57.2 °F 30 in WSW 4.9 mph 7 mph 73% 0 in 663 W/m2
10:42 66 °F 56.7 °F 30 in WNW 6.9 mph 9 mph 72% 0 in 668 W/m2
10:47 66 °F 56.7 °F 30 in West 2.9 mph 7 mph 72% 0 in 675 W/m2
10:52 66.2 °F 56.5 °F 30 in NNW 2.9 mph 5 mph 71% 0 in 610 W/m2
10:57 66.4 °F 56.7 °F 30 in West 8.1 mph 8 mph 71% 0 in 633 W/m2
11:02 66.6 °F 56.5 °F 30 in WSW 4 mph 6 mph 70% 0 in 610 W/m2
11:07 66.4 °F 55.9 °F 30 in SW 6 mph 9 mph 69% 0 in 269 W/m2
11:12 66 °F 55.6 °F 30 in West 6.9 mph 7 mph 69% 0 in 613 W/m2
11:17 66 °F 55.9 °F 30 in NW 4 mph 9 mph 70% 0 in 659 W/m2
11:22 66.2 °F 55.8 °F 30 in NW 4 mph 9 mph 69% 0 in 773 W/m2
11:27 66.4 °F 55.9 °F 30 in WNW 2.9 mph 5 mph 69% 0 in 747 W/m2
11:32 66.6 °F 56.5 °F 30 in Calm   4 mph 70% 0 in 366 W/m2
11:37 66.9 °F 55.9 °F 30 in WSW 8.9 mph 9 mph 68% 0 in 770 W/m2
11:42 67.3 °F 56.8 °F 30 in NW 0.9 mph 3 mph 69% 0 in 849 W/m2
11:47 67.5 °F 55.8 °F 30 in WSW 4.9 mph 10 mph 66% 0 in 886 W/m2
11:52 67.6 °F 56.3 °F 30 in WSW 4.9 mph 7 mph 67% 0 in 373 W/m2
11:57 67.5 °F 55.8 °F 30 in NW 2 mph 9 mph 66% 0 in 237 W/m2
12:02 66.7 °F 55.4 °F 30 in WNW 4 mph 5 mph 67% 0 in 213 W/m2
12:07 66.9 °F 56.5 °F 30 in NW 2.9 mph 9 mph 69% 0 in 970 W/m2
12:17 67.6 °F 56.3 °F 30 in WSW 6.9 mph 7 mph 67% 0 in 907 W/m2
12:22 67.8 °F 56.8 °F 30 in West 2 mph 4 mph 68% 0 in 891 W/m2
12:27 68.4 °F 57.4 °F 30 in SW 0.9 mph 3 mph 68% 0 in 937 W/m2
12:32 68.7 °F 55.6 °F 30 in WSW 8.1 mph 10 mph 63% 0 in 911 W/m2
12:37 68.7 °F 55.6 °F 30 in WNW 8.1 mph 10 mph 63% 0 in 984 W/m2
12:42 68.7 °F 56.5 °F 30 in North 4 mph 6 mph 65% 0 in 1002 W/m2
12:47 69.1 °F 55.6 °F 30 in NW 4.9 mph 10 mph 62% 0 in 396 W/m2
12:52 68.4 °F 55.8 °F 30 in West 4 mph 8 mph 64% 0 in 188 W/m2
12:57 67.5 °F 55.2 °F 30 in WSW 11 mph 13 mph 65% 0 in 165 W/m2
13:02 66.7 °F 54.7 °F 30 in NNW 4.9 mph 8 mph 65% 0 in 171 W/m2
13:07 66.7 °F 54.7 °F 30 in WNW 2 mph 6 mph 65% 0 in 234 W/m2
13:12 66.7 °F 55 °F 30 in NW 4 mph 11 mph 66% 0 in 264 W/m2
13:17 66.6 °F 55.2 °F 30 in WNW 2 mph 8 mph 67% 0 in 301 W/m2
13:22 66.7 °F 55.4 °F 30 in WNW 2.9 mph 10 mph 67% 0 in 404 W/m2
13:27 67.5 °F 56.1 °F 30 in NW 4 mph 9 mph 67% 0 in 1014 W/m2
13:33 68.4 °F 55.2 °F 30 in West 6 mph 10 mph 63% 0 in 1051 W/m2
13:38 68.7 °F 55.2 °F 30 in WNW 8.1 mph 10 mph 62% 0 in 1088 W/m2
13:43 68.5 °F 55.4 °F 30 in West 6.9 mph 10 mph 63% 0 in 638 W/m2
13:48 68.2 °F 55 °F 30 in West 8.1 mph 11 mph 63% 0 in 385 W/m2
13:53 67.8 °F 55.6 °F 30 in NW 4.9 mph 8 mph 65% 0 in 385 W/m2
13:58 67.8 °F 55.6 °F 30 in WSW 4.9 mph 7 mph 65% 0 in 545 W/m2
14:03 68 °F 55.8 °F 30 in West 2 mph 10 mph 65% 0 in 696 W/m2
14:08 68.7 °F 56.1 °F 30 in West 2.9 mph 8 mph 64% 0 in 612 W/m2
14:13 69.3 °F 57 °F 30 in NW 4 mph 8 mph 65% 0 in 371 W/m2
14:18 69.4 °F 56.7 °F 30 in WSW 4 mph 12 mph 64% 0 in 1097 W/m2
14:23 70 °F 56.8 °F 30 in WNW 2.9 mph 7 mph 63% 0 in 1137 W/m2
14:28 69.4 °F 55.9 °F 30 in West 6.9 mph 11 mph 62% 0 in 508 W/m2
14:33 69.6 °F 56.5 °F 30 in WSW 6 mph 8 mph 63% 0 in 956 W/m2
14:38 69.6 °F 55.9 °F 30 in WNW 6 mph 9 mph 62% 0 in 956 W/m2
14:43 69.8 °F 57 °F 30 in NNW 6 mph 12 mph 64% 0 in 918 W/m2
14:48 70.2 °F 57 °F 30 in WSW 10.1 mph 10 mph 63% 0 in 798 W/m2
14:53 70.2 °F 56.5 °F 30 in WNW 8.1 mph 13 mph 62% 0 in 963 W/m2
14:58 70.2 °F 56.1 °F 30 in West 4 mph 11 mph 61% 0 in 1039 W/m2
15:03 69.3 °F 55.2 °F 30 in WSW 4.9 mph 9 mph 61% 0 in 499 W/m2
15:08 69.4 °F 56.3 °F 30 in WNW 2.9 mph 4 mph 63% 0 in 976 W/m2
15:13 70.2 °F 56.5 °F 30 in WNW 4 mph 6 mph 62% 0 in 1085 W/m2
15:18 70.7 °F 55.6 °F 30 in WNW 2 mph 5 mph 59% 0 in 1058 W/m2
15:23 71.1 °F 56.5 °F 30 in WNW 4 mph 4 mph 60% 0 in 557 W/m2
15:28 71.2 °F 56.1 °F 30 in West 6.9 mph 10 mph 59% 0 in 622 W/m2
15:33 70.7 °F 54.7 °F 30 in West 6 mph 11 mph 57% 0 in 991 W/m2
15:38 71.1 °F 55.9 °F 30 in WNW 0.9 mph 7 mph 59% 0 in 735 W/m2
15:43 72 °F 55.9 °F 30 in NNW 6 mph 11 mph 57% 0 in 977 W/m2
15:48 71.8 °F 55.8 °F 30 in WNW 2.9 mph 10 mph 57% 0 in 977 W/m2
15:53 72 °F 56.8 °F 30 in WNW 6 mph 12 mph 59% 0 in 893 W/m2
15:58 71.8 °F 55.8 °F 30 in WNW 6 mph 9 mph 57% 0 in 132 W/m2
16:03 70.9 °F 55.4 °F 30 in NW 0.9 mph 4 mph 58% 0 in 218 W/m2
16:08 70.3 °F 55.8 °F 30 in WSW 2.9 mph 6 mph 60% 0 in 250 W/m2
16:18 70.7 °F 55.6 °F 30 in WNW 4 mph 6 mph 59% 0 in 951 W/m2
16:23 71.2 °F 56.7 °F 30 in WNW 8.9 mph 10 mph 60% 0 in 944 W/m2
16:28 70.9 °F 56.3 °F 30 in West 6 mph 9 mph 60% 0 in 213 W/m2
16:33 70 °F 56.8 °F 30 in West 2.9 mph 7 mph 63% 0 in 253 W/m2
16:38 69.6 °F 55.9 °F 30 in WSW 10.1 mph 11 mph 62% 0 in 373 W/m2
16:43 70.2 °F 56.1 °F 30 in WNW 11 mph 13 mph 61% 0 in 986 W/m2
16:48 70.7 °F 55.6 °F 30 in WSW 8.9 mph 12 mph 59% 0 in 410 W/m2
16:53 70.7 °F 55.6 °F 30 in WNW 8.1 mph 13 mph 59% 0 in 856 W/m2
16:58 70.7 °F 54.7 °F 30 in NNW 4 mph 10 mph 57% 0 in 234 W/m2
17:03 71.1 °F 55 °F 30 in WNW 4.9 mph 12 mph 57% 0 in 731 W/m2
17:08 71.4 °F 54.5 °F 30 in West 6.9 mph 8 mph 55% 0 in 687 W/m2
17:13 71.8 °F 53.8 °F 30 in West 0.9 mph 8 mph 53% 0 in 668 W/m2
17:18 72 °F 54.9 °F 30 in WNW 8.1 mph 9 mph 55% 0 in 635 W/m2
17:23 72.1 °F 55 °F 30 in NW 4 mph 9 mph 55% 0 in 703 W/m2
17:28 72 °F 55.4 °F 30 in WSW 2.9 mph 9 mph 56% 0 in 724 W/m2
17:33 72 °F 54 °F 30 in SW 6.9 mph 15 mph 53% 0 in 679 W/m2
17:38 71.8 °F 53.2 °F 30 in WSW 11 mph 11 mph 52% 0 in 628 W/m2
17:43 71.6 °F 53.1 °F 30 in WSW 8.9 mph 13 mph 52% 0 in 635 W/m2
17:53 70.9 °F 51.8 °F 30 in WNW 6 mph 14 mph 51% 0 in 313 W/m2
17:58 70.5 °F 52.5 °F 30 in WNW 6.9 mph 9 mph 53% 0 in 596 W/m2
18:04 70.9 °F 54 °F 30 in WSW 8.9 mph 9 mph 55% 0 in 587 W/m2
18:09 71.1 °F 53.6 °F 30 in WNW 8.1 mph 8 mph 54% 0 in 541 W/m2
18:14 71.2 °F 53.8 °F 30 in West 6.9 mph 10 mph 54% 0 in 503 W/m2
18:19 71.4 °F 54.5 °F 30 in NW 8.9 mph 9 mph 55% 0 in 464 W/m2
18:24 71.4 °F 54 °F 30 in West 6 mph 10 mph 54% 0 in 336 W/m2
18:29 71.1 °F 54.1 °F 30 in WNW 2.9 mph 7 mph 55% 0 in 381 W/m2
18:34 71.2 °F 54.3 °F 30 in WSW 2.9 mph 10 mph 55% 0 in 352 W/m2
18:39 71.6 °F 54.5 °F 30 in NW 2.9 mph 3 mph 55% 0 in 330 W/m2
18:44 71.8 °F 54.3 °F 30 in NNW 2.9 mph 4 mph 54% 0 in 309 W/m2
18:49 71.6 °F 54.1 °F 30 in WSW 2 mph 6 mph 54% 0 in 283 W/m2
18:54 71.8 °F 54.7 °F 30 in SSW 2 mph 6 mph 55% 0 in 267 W/m2
18:59 72 °F 54.9 °F 30 in SSW 2.9 mph 5 mph 55% 0 in 265 W/m2
19:04 71.6 °F 54.5 °F 30 in WNW 6.9 mph 7 mph 55% 0 in 283 W/m2
19:09 71.6 °F 54.5 °F 30 in West 2.9 mph 6 mph 55% 0 in 299 W/m2
19:14 72 °F 54.9 °F 30 in WNW 2.9 mph 7 mph 55% 0 in 318 W/m2
19:19 72.1 °F 55 °F 30 in WNW 2.9 mph 6 mph 55% 0 in 320 W/m2
19:24 72.3 °F 54.7 °F 30 in WNW 4 mph 5 mph 54% 0 in 311 W/m2
19:29 72.1 °F 54.5 °F 30 in WNW 2.9 mph 8 mph 54% 0 in 290 W/m2
19:34 72 °F 54.3 °F 30 in WNW 2 mph 8 mph 54% 0 in 255 W/m2
19:39 72 °F 54.3 °F 30 in NNW 2.9 mph 7 mph 54% 0 in 204 W/m2
19:44 71.8 °F 54.3 °F 30 in NW 0.9 mph 5 mph 54% 0 in 181 W/m2
19:49 72 °F 54.3 °F 30 in WSW 2.9 mph 4 mph 54% 0 in 176 W/m2
19:54 72 °F 54.9 °F 30 in WSW 2.9 mph 3 mph 55% 0 in 181 W/m2
19:59 72 °F 54.9 °F 30 in West 2 mph 4 mph 55% 0 in 178 W/m2
20:04 71.8 °F 54.7 °F 30 in NW 2 mph 6 mph 55% 0 in 165 W/m2
20:09 71.1 °F 54.5 °F 30 in West 2.9 mph 7 mph 56% 0 in 47 W/m2
20:14 70.5 °F 54.5 °F 30 in West 2 mph 7 mph 57% 0 in 127 W/m2
20:19 70.3 °F 54.3 °F 30 in West 2.9 mph 4 mph 57% 0 in 74 W/m2
20:24 70.3 °F 54.3 °F 30 in WNW 2.9 mph 4 mph 57% 0 in 121 W/m2
20:29 70.5 °F 55 °F 30 in SW 0.9 mph 4 mph 58% 0 in 113 W/m2
20:34 70.7 °F 54.7 °F 30 in WNW 2.9 mph 4 mph 57% 0 in 100 W/m2
20:39 70.7 °F 54.7 °F 30 in WNW 4 mph 7 mph 57% 0 in 104 W/m2
20:44 70.7 °F 54.7 °F 30 in WNW 2.9 mph 6 mph 57% 0 in 100 W/m2
20:49 70.3 °F 54.9 °F 30 in SW 2.9 mph 4 mph 58% 0 in 86 W/m2
20:54 70.2 °F 54.7 °F 30 in NW 2.9 mph 3 mph 58% 0 in 39 W/m2
20:59 70 °F 55.9 °F 30 in Calm     61% 0 in 54 W/m2
21:04 70 °F 55.9 °F 30 in SW 0.9 mph 1 mph 61% 0 in 42 W/m2
21:10 70 °F 55.9 °F 30 in Calm   1 mph 61% 0 in 32 W/m2
21:15 69.6 °F 55.9 °F 30 in Calm   1 mph 62% 0 in 21 W/m2
21:20 69.1 °F 56.5 °F 30 in West 0.9 mph 1 mph 64% 0 in 18 W/m2
21:25 68.4 °F 55.8 °F 30 in Calm   1 mph 64% 0 in 12 W/m2
21:30 67.6 °F 55 °F 30 in WSW 0.9 mph 2 mph 64% 0 in 11 W/m2
21:35 67.3 °F 55 °F 30.1 in WSW 0.9 mph 3 mph 65% 0 in 7 W/m2
21:40 66.7 °F 55 °F 30.1 in WSW 0.9 mph 2 mph 66% 0 in 5 W/m2
21:45 66.4 °F 54.7 °F 30.1 in West 2 mph 3 mph 66% 0 in 0 W/m2
21:50 65.8 °F 54.1 °F 30.1 in West 0.9 mph 1 mph 66% 0 in 0 W/m2
21:55 65.7 °F 54 °F 30.1 in SW 0.9 mph 3 mph 66% 0 in 0 W/m2
22:00 65.5 °F 53.4 °F 30.1 in WSW 2 mph 3 mph 65% 0 in 0 W/m2
22:05 65.1 °F 52.7 °F 30.1 in West 2 mph 6 mph 64% 0 in 0 W/m2
22:10 65.1 °F 52.7 °F 30.1 in West 2 mph 3 mph 64% 0 in 0 W/m2
22:15 64.9 °F 52 °F 30.1 in West 0.9 mph 6 mph 63% 0 in 0 W/m2
22:20 64.8 °F 51.4 °F 30.1 in West 2.9 mph 7 mph 62% 0 in 0 W/m2
22:25 64.8 °F 51.8 °F 30.1 in West 2 mph 3 mph 63% 0 in 0 W/m2
22:30 64.8 °F 51.4 °F 30.1 in West 2 mph 4 mph 62% 0 in 0 W/m2
22:35 64.8 °F 51.4 °F 30.1 in West 2 mph 3 mph 62% 0 in 0 W/m2
22:40 64.6 °F 51.3 °F 30.1 in WSW 2 mph 3 mph 62% 0 in 0 W/m2
22:50 64.4 °F 51.1 °F 30.1 in West 2.9 mph 6 mph 62% 0 in 0 W/m2
22:55 64.2 °F 51.4 °F 30.1 in Calm   3 mph 63% 0 in 0 W/m2
23:00 64 °F 51.6 °F 30.1 in West 2.9 mph 5 mph 64% 0 in 0 W/m2
23:06 64 °F 51.3 °F 30.1 in WSW 2.9 mph 3 mph 63% 0 in 0 W/m2
23:11 64 °F 50.7 °F 30.1 in West 2 mph 6 mph 62% 0 in 0 W/m2
23:16 64 °F 51.3 °F 30.1 in West 2 mph 3 mph 63% 0 in 0 W/m2
23:21 64 °F 51.3 °F 30.1 in West 4 mph 6 mph 63% 0 in 0 W/m2
23:26 64 °F 51.3 °F 30.1 in West 2.9 mph 5 mph 63% 0 in 0 W/m2
23:31 63.9 °F 51.8 °F 30.1 in NW 2.9 mph 3 mph 65% 0 in 0 W/m2
23:36 63.1 °F 52.9 °F 30.1 in NW 0.9 mph 3 mph 69% 0 in 0 W/m2
23:41 62.2 °F 52.3 °F 30.1 in NW 0.9 mph 2 mph 70% 0 in 0 W/m2
23:46 61.9 °F 52.3 °F 30.1 in WNW 0.9 mph 2 mph 71% 0 in 0 W/m2
23:51 61.3 °F 52.2 °F 30.1 in WNW 0.9 mph 2 mph 72% 0 in 0 W/m2
23:56 61 °F 52.3 °F 30.1 in West 2 mph 3 mph 73% 0 in 0 W/m2
Juneau County Weather
Compliments of Weather Underground - 4 mb